Johnstown, PA

10:07 AM EST on January 22, 2018 (GMT -0500)
Johnstown-Cambria County

Weather History for KJST - August, 2015

Change the Weather History Date:

Tuesday, August 25, 2015

  Actual Average Record
Temperature  
Mean Temperature 62 °F 67 °F  
Max Temperature 70 °F 75 °F 94 °F (1936)
Min Temperature 54 °F 59 °F 40 °F (1944)
Degree Days  
Heating Degree Days 3 1  
Month to date heating degree days 11 21  
Since 1 June heating degree days 79 108  
Since 1 July heating degree days 18 34  
Cooling Degree Days 0 3  
Month to date cooling degree days 101 102  
Year to date cooling degree days 431 345  
Since 1 June cooling degree days 347 327  
Growing Degree Days 12 (Base 50)    
Moisture  
Dew Point 48 °F    
Average Humidity 62    
Maximum Humidity 83    
Minimum Humidity 40    
Precipitation  
Precipitation 0.00 in 0.12 in 1.94 in (1982)
Month to date precipitation 2.70 3.14  
Year to date precipitation 33.65 23.63  
Sea Level Pressure  
Sea Level Pressure 29.98 in    
Wind  
Wind Speed 8 mph (West)    
Max Wind Speed 21 mph    
Max Gust Speed 29 mph    
Visibility 10 miles    
Events      
T = Trace of Precipitation, MM = Missing Value Source: NWS Daily Summary

Daily Weather History Graph

Daily Weather History Graph

Search for Another Location

Airport or City:

Trip Planner

Search our weather history database for the weather conditions in past years. The results will help you decide how hot, cold, wet, or windy it might be!

Date:

Astronomy

Aug. 25, 2015 Rise Set
Actual Time 6:35 AM EDT 7:58 PM EDT
Civil Twilight 6:07 AM EDT 8:26 PM EDT
Nautical Twilight 5:33 AM EDT 9:00 PM EDT
Astronomical Twilight 4:57 AM EDT 9:36 PM EDT
Moon 4:44 PM EDT (8/25) 2:00 AM EDT (8/25)
Length of Visible Light 14h 19m
Length of Day
13h 22m
Waxing Gibbous, 78% of the Moon is Illuminated
Aug 25
Waxing Gibbous
Aug 29
Full
Sep 5
Last Quarter
Sep 13
New
Sep 21
First Quarter

Hourly Weather History & Observations

Time (EDT) Temp. Dew Point Humidity Pressure Visibility Wind Dir Wind Speed Gust Speed Precip Events Conditions
12:54 AM 61.0 °F 50.0 °F 67% 29.95 in 10.0 mi West 3.5 mph - N/A   Mostly Cloudy
1:54 AM 60.1 °F 50.0 °F 69% 29.94 in 10.0 mi West 4.6 mph - N/A   Mostly Cloudy
2:54 AM 60.1 °F 48.9 °F 67% 29.92 in 10.0 mi West 5.8 mph - N/A   Mostly Cloudy
3:54 AM 57.0 °F 48.9 °F 74% 29.92 in 10.0 mi WSW 5.8 mph - N/A   Clear
4:54 AM 55.0 °F 48.9 °F 80% 29.92 in 10.0 mi SW 4.6 mph - N/A   Partly Cloudy
5:54 AM 54.0 °F 48.0 °F 80% 29.93 in 10.0 mi SW 5.8 mph - N/A   Partly Cloudy
6:54 AM 54.0 °F 48.0 °F 80% 29.95 in 10.0 mi SSW 5.8 mph - N/A   Clear
7:54 AM 57.0 °F 48.9 °F 74% 29.96 in 10.0 mi SW 5.8 mph - N/A   Partly Cloudy
8:54 AM 60.1 °F 50.0 °F 69% 29.96 in 10.0 mi WSW 6.9 mph - N/A   Clear
9:54 AM 63.0 °F 50.0 °F 63% 29.96 in 10.0 mi West 8.1 mph - N/A   Clear
10:54 AM 64.9 °F 46.0 °F 50% 29.97 in 10.0 mi WSW 15.0 mph 20.7 mph N/A   Scattered Clouds
11:54 AM 66.0 °F 46.0 °F 48% 29.97 in 10.0 mi West 10.4 mph 21.9 mph N/A   Scattered Clouds
12:54 PM 68.0 °F 46.9 °F 47% 29.96 in 10.0 mi West 11.5 mph - N/A   Mostly Cloudy
1:54 PM 69.1 °F 45.0 °F 42% 29.96 in 10.0 mi WSW 15.0 mph 23.0 mph N/A   Scattered Clouds
2:54 PM 66.0 °F 46.9 °F 50% 29.96 in 10.0 mi WNW 11.5 mph - N/A   Overcast
3:54 PM 66.0 °F 46.9 °F 50% 29.96 in 10.0 mi West 9.2 mph - N/A   Overcast
4:54 PM 66.0 °F 48.0 °F 52% 29.97 in 10.0 mi WNW 9.2 mph - N/A   Overcast
5:54 PM 64.9 °F 50.0 °F 58% 29.98 in 10.0 mi WNW 10.4 mph - N/A   Overcast
6:54 PM 63.0 °F 50.0 °F 63% 30.00 in 10.0 mi NW 5.8 mph - N/A   Overcast
7:54 PM 62.1 °F 48.9 °F 62% 30.00 in 10.0 mi WNW 5.8 mph - N/A   Overcast
8:54 PM 61.0 °F 48.9 °F 64% 30.02 in 10.0 mi NW 8.1 mph - N/A   Overcast
9:54 PM 60.1 °F 48.9 °F 67% 30.04 in 10.0 mi WNW 8.1 mph - N/A   Overcast
10:09 PM 60.1 °F 48.9 °F 67% 30.05 in 10.0 mi WNW 5.8 mph - N/A   Overcast
10:54 PM 59.0 °F 48.9 °F 69% 30.04 in 10.0 mi WNW 5.8 mph - N/A   Overcast
11:11 PM 57.9 °F 48.9 °F 72% 30.05 in 10.0 mi WNW 5.8 mph - N/A   Overcast
11:54 PM 59.0 °F 48.0 °F 67% 30.03 in 10.0 mi Variable 3.5 mph - N/A   Overcast